Regional Weather Roundup
Issued by NWS

Home | Current Version | Previous Version | Text Only | Print | Product List | Glossary On
Versions: 1 2 3 4 5 6 7 8 9 10 11 12 13 14 15 16 17 18 19 20 21 22 23 24 25 26 27 28 29 30 31 32 33 34 35 36 37 38 39 40 41 42 43 44 45 46 47 48 49 50
000
ASUS44 KEWX 060202
RWRTX
SOUTH TEXAS REGIONAL WEATHER ROUNDUP
NATIONAL WEATHER SERVICE AUSTIN/SAN ANTONIO TX
800 PM CST THU MAR 05 2015

NOTE: "FAIR" INDICATED FEW OR NO CLOUDS BELOW 12,000 FEET WITH NO
SIGNIFICANT WEATHER AND/OR OBSTRUCTIONS TO VISIBILITY.

* - THESE STATIONS ARE NOT NWS OR FAA STATIONS...AND ARE NOT SUBJECT
    TO NWS AND FAA QUALITY CONTROL.

TXZ171-172-183>190-060300-
TEXAS HILL COUNTRY AND EDWARDS PLATEAU

CITY           SKY/WX    TMP DP  RH WIND       PRES   REMARKS
JUNCTION       CLEAR     34  24  67 N6        30.52R WCI  29
*LLANO         CLEAR     36  21  55 CALM      30.59R
BURNET         CLEAR     33  20  58 N3        30.57R
*HORSESHOE BAY CLEAR     33  24  69 CALM      30.57R
*KERRVILLE     CLEAR     34  23  63 NE5       30.54R WCI  30
*FREDERICKSBRG CLEAR     33  23  68 CALM      30.52R
*ROCKSPRINGS   CLEAR     34  27  75 CALM      30.52R
*BOERNE STAGE  CLEAR     36  21  55 N5        30.54R WCI  32
*CASTROVILLE   CLEAR     40  23  49 N7        30.55R WCI  36
HONDO          CLEAR     35  25  66 N7        30.56R WCI  29
*UVALDE        CLEAR     41  28  59 NE5       30.55R WCI  38
DEL RIO        CLEAR     46  25  43 N3        30.52R
LAUGHLIN AFB   CLEAR     43  32  65 NE5       30.52R WCI  40
CARRIZO SPRGS  CLEAR     45  28  53 N5        30.53S WCI  42
$$

TXZ173-191>194-202-209-217>225-228-060300-
CENTRAL AND SOUTH CENTRAL TEXAS

CITY           SKY/WX    TMP DP  RH WIND       PRES   REMARKS
GEORGETOWN     CLEAR     34  19  55 N5        30.57R WCI  30
AUSTIN/BERGSTM PTCLDY    32  21  64 N9        30.57R WCI  24
AUSTIN/MABRY   CLEAR     38  20  48 CALM      30.57R
*AUSTIN/EXEC   MOCLDY    36  21  55 N8        30.57R WCI  29
*LAGO VISTA    CLEAR     33  23  66 NE6       30.55R WCI  28
SAN MARCOS     CLEAR     36  19  51 N7        30.57R WCI  30
NEW BRAUNFELS  CLEAR     39  21  48 N10       30.54R WCI  32
RANDOLPH AFB   NOT AVBL
PT SAN ANTONIO CLEAR     41  21  45 N9        30.53R WCI  35
SAN ANTONIO    PTCLDY    41  21  44 N6        30.55R WCI  37
STINSON FIELD  CLEAR     43  21  41 N9        30.54R WCI  38
*PLEASANTON    CLEAR     42  22  45 N3        30.56R
*LA GRANGE     CLEAR     41  28  59 N9        30.53R WCI  35
*GIDDINGS      CLEAR     37  26  63 N9        30.59R WCI  30
*GONZALES      CLEAR     38  26  60 N7        30.55R WCI  33
$$

TXZ163>164-176>182-195>201-210>213-226-227-235-060300-
SOUTHEAST TEXAS

CITY           SKY/WX    TMP DP  RH WIND       PRES   REMARKS
COLLEGE STN    CLEAR     37  26  64 N8        30.55R WCI  31
*BRYAN         CLEAR     37  27  67 N7        30.56R WCI  32
*CALDWELL      CLEAR     36  27  69 NW8       30.59R WCI  29
*CROCKETT      CLEAR     39  28  65 N5        30.58R WCI  36
*BRENHAM       CLEAR     40  29  65 N9        30.55R WCI  34
HUNTSVILLE     CLEAR     38  22  52 VRB3      30.53R
CONROE         CLEAR     40  22  48 N5        30.53R WCI  37
HOUSTON BUSH   CLEAR     43  26  51 N9        30.52R WCI  38
HOUSTON HOBBY  PTCLDY    45  26  47 N15       30.50R WCI  38
*HOUSTON SW AP CLEAR     49  37  62 N5        30.51R WCI  47
PEARLAND       CLEAR     46  25  43 NE12      30.52R WCI  41
HOUSTON HOOKS  CLEAR     41  26  55 N6        30.52R WCI  37
ELLINGTON FLD  MOCLDY    46  30  53 N10       30.51R WCI  41
SUGAR LAND     CLEAR     43  27  53 N12       30.51R WCI  37
*HOUSTON EXEC  CLEAR     37  28  70 N8        30.54R WCI  31
*CLEVELAND MUN CLEAR     39  25  56 N6        30.53R WCI  35
*WHARTON       CLEAR     38  31  74 NW7       30.53R WCI  33
*COLUMBUS      FAIR      40  29  65 N7        30.54R WCI  35
$$

TXZ214>216-236>238-060300-
THE UPPER TEXAS COAST

CITY           SKY/WX    TMP DP  RH WIND       PRES   REMARKS
*ORANGE        CLEAR     39  28  63 N6        30.52R WCI  35
PORT ARTHUR    CLEAR     41  24  51 N17       30.50R WCI  32
GALVESTON      CLEAR     46  29  51 N22G30    30.49R WCI  38
ANGLETON       CLEAR     42  31  64 N8        30.50R WCI  37
*BAY CITY      CLEAR     43  32  66 N8        30.50R WCI  38
PALACIOS       CLEAR     40  32  73 N9        30.51R WCI  34
$$

TXZ229>234-239>247-060300-
TEXAS COASTAL BEND AND RIO GRANDE PLAINS

CITY           SKY/WX    TMP DP  RH WIND       PRES   REMARKS
VICTORIA       CLEAR     41  29  62 N9        30.53R WCI  35
*BEEVILLE      CLEAR     43  27  54 N9        30.52R WCI  37
ROCKPORT       MOCLDY    46  28  49 N13       30.52R WCI  40
*PORT ARANSAS  MOCLDY    47  32  55 N14       30.50R WCI  42
*PORT LAVACA   CLEAR     40  32  71 N8        30.52R WCI  35
*INGLESIDE     MOCLDY    49  32  52 N12       30.50R WCI  44
CORPUS CHRISTI MOCLDY    47  29  49 N18       30.51R WCI  40
CORPUS NAS     MOCLDY    49  31  49 N21       30.50R WCI  42
*ROBSTOWN      MOCLDY   N/A N/A N/A CALM      30.52R
ALICE          MOCLDY    47  25  42 N9        30.52R WCI  43
KINGSVILLE NAS MOCLDY    48  31  51 N12       30.53R WCI  43
COTULLA        CLEAR     46  27  47 N8        30.54R WCI  42
*FAITH RANCH   CLEAR     46  27  46 NE6       30.53R WCI  43
LAREDO         CLEAR     46  31  56 CALM      30.56R
$$

TXZ248>255-060300-
DEEP SOUTH TEXAS

CITY           SKY/WX    TMP DP  RH WIND       PRES   REMARKS
BROWNSVILLE    CLOUDY    50  36  58 N12       30.48R WCI  46
PORT ISABEL    CLOUDY    50  38  63 N15       30.48R WCI  45
*SOUTH PADRE   CLOUDY    50  39  66 N16G22    30.47R WCI  44
HARLINGEN      CLOUDY    51  36  56 N14       30.49R
*HEBBRONVILLE  CLOUDY   N/A N/A N/A N6        30.52R
MCALLEN        CLOUDY    53  33  46 N14       30.51R
*WESLACO       CLOUDY    51  34  52 N8        30.48S
FALFURRIAS     CLOUDY    50  27  40 N8        30.52R WCI  47
EDINBURG       CLOUDY    53  34  48 CALM      30.51R
*ZAPATA        CLOUDY    50  30  46 N9        30.53R WCI  46
$$

TXZ213>215-236>238-242>244-246-247-251-254-255-060300-
CMAN STATIONS

STATION/POSITION TIME  TEMP    WIND        PRES    WAVE
                       AIR SEA DIR/SP/G            HT/PER
                 (UTC) (F)     (DEG/KT/KT) (MB)    (FT/S)
$$

GMZ080-GMZ150>470-060300-
OFFSHORE BUOY REPORTS

STATION/POSITION TIME  TEMP    WIND        PRES    WAVE
                       AIR SEA DIR/SP/G            HT/PER
                 (UTC) (F)     (DEG/KT/KT) (MB)    (FT/S)
$$



USA.gov is the U.S. government's official web portal to all federal, state and local government web resources and services.